Starlink 36201

operational
NORAD ID: 67164 Int'l Des: 2025-303 Owner: SPXS Country: US Constellation: starlink
LEOCIRCULAR

Über Starlink 36201

Beschreibung wird geladen...

Live-Position

3D-Globus wird geladen...

Nächste Überflüge

Höhenverlauf

Altitude vs Time

uPlot chart will show altitude changes over time

Zweizeiliger Elementsatz

1 67164C 25303B 25352.76645833 .00687550 00000+0 10177-2 0 3527
2 67164 43.0044 61.7914 0007368 289.2479 253.0921 16.03190861 12
Epoch: 18. Dez. 2025 • Age: 47 hours

Aktueller Status

Höhe 269.9 km
Geschwindigkeit 7.75 km/s
Subsatellitenpunkt -39.63°S, 138.53°W
Startdatum 17. Dez. 2025
Alter 2 days
Typ internet

Technische Details

Klassifizierung Payload
Masse 575.00 kg
Trockenmasse 530.00 kg
Gesamtmasse 575.00 kg
Länge 0.30 m
Durchmesser 4.10 m
Spannweite 29.00 m
Form Box + pan
Hersteller SPXS
Bus-Typ Starlink V2MO
Phasenstatus In Orbit
Besitzer/Staat SPXS/US

Große Konstellationen

Loading constellations...